Location: Chomutov
(50.4500°N, 13.4333°E)
Time: 17:24:16
(UTC+02:00)

X-37B - Visible Passes

Search period start: 25 September 2022 00:00
Search period end: 05 October 2022 00:00
Orbit: 330 x 340 km, 45.0° (Epoch: 02 September)

Date Brightness Start Highest point End Pass type
(mag) Time Alt. Az. Time Alt. Az. Time Alt. Az.
26 Sep 2.9 05:23:36 12° S 05:24:33 13° SSE 05:26:01 10° SE visible
27 Sep 2.3 05:43:15 14° SSW 05:44:42 20° SSE 05:46:55 10° ESE visible
28 Sep 1.9 06:02:51 13° SW 06:04:54 26° S 06:07:22 10° ESE visible
29 Sep 2.8 04:51:13 16° SE 04:51:13 16° SE 04:52:21 10° ESE visible
29 Sep 1.8 06:22:38 10° WSW 06:25:09 27° S 06:27:39 10° ESE visible
30 Sep 2.0 05:10:48 24° SSE 05:10:48 24° SSE 05:12:48 10° ESE visible
01 Oct 1.6 05:30:24 27° S 05:30:34 27° S 05:33:04 10° ESE visible
02 Oct 1.9 05:50:02 20° SW 05:50:48 23° SSW 05:53:09 10° SE visible
03 Oct 3.6 04:38:29 10° ESE 04:38:29 10° ESE 04:38:30 10° ESE visible
03 Oct 2.4 06:09:43 13° SW 06:10:58 16° SSW 06:12:50 10° SSE visible
04 Oct 3.2 04:58:15 12° SE 04:58:15 12° SE 04:58:35 10° SE visible
